(133413) = 2003 SU177

Discovered at Kitt Peak on 2003-09-19 by Spacewatch.

Orbit

Orbit type: Main Belt

Note: WebGL enabled browser required.

epoch2024-03-31.0
epoch JD2460400.5
perihelion date2022-05-31.07918
perihelion JD2459730.57918
argument of perihelion (°)83.89790
ascending node (°)274.09375
inclination (°)1.54410
eccentricity0.1101320
perihelion distance (AU)2.4670063
Tisserand w.r.t. Jupiter3.3
ΔV w.r.t. Earth (km/sec)9.9
semimajor axis (AU)2.7723283
mean anomaly (°)143.04093
mean daily motion (°/day)0.21351920
aphelion distance (AU)3.078
period (years)4.62
P-vector [x]0.99902559
P-vector [y]-0.04283498
P-vector [z]0.01063222
Q-vector [x]0.03500680
Q-vector [y]0.91577655
Q-vector [z]0.40015976
absolute magnitude15.87
phase slope0.15
uncertainty0
referenceMPEC 2024-E123
observations used613
oppositions16
arc length (days)10767
first opposition used1994
last opposition used2024
residual rms (arc-secs)0.75
perturbers coarse indicatorM-v
perturbers precise indicator003Ek
first observation date used1994-09-12.0
last observation date used2024-03-05.0
computer nameMPCLINUX
JD of orbit computation2456760.873958
perihelion JD uncertainty (days)1.2227E-04
argument of perihelion uncertainty (°)2.1979E-04
ascending node uncertainty (°)2.1804E-04
inclination uncertainty (°)4.5879E-06
eccentricity uncertainty 5.3487E-08
perihelion distance uncertainty (AU)1.4412E-07
Minimum Orbit Intersection Distances (in AU)
for orbit epoch: 2460400.5, reference: E2024-GB3
Mercury2.09567
Venus1.744
Earth1.4635
Mars1.07145
Jupiter2.34291
Saturn6.18939
Uranus15.3709
Neptune27.2413

Observations

624 total observations over interval: 1994 09 12.18621 – 2024 03 05.176572
These data are available for download (format description).

Date (UT) J2000 RA J2000 Dec Magn Location Ref
1994 09 12.18621 00 12 16.19 +04 06 18.1   691 – Steward Observatory, Kitt Peak-Spacewatch MPS 96629
1994 09 12.20882 00 12 15.15 +04 06 12.6   691 – Steward Observatory, Kitt Peak-Spacewatch MPS 96629
1994 09 12.23049 00 12 14.18 +04 06 06.8 19.2 V 691 – Steward Observatory, Kitt Peak-Spacewatch MPS 96629
1994 09 29.20412 23 58 51.21 +02 41 43.1   691 – Steward Observatory, Kitt Peak-Spacewatch MPS 96629
1994 09 29.22767 23 58 50.05 +02 41 36.0 18.9 V 691 – Steward Observatory, Kitt Peak-Spacewatch MPS 96629
2003 07 24.44291 22 27 34.30 -07 44 23.1 19.1   644 – Palomar Mountain/NEAT MPS 96365
2003 07 24.47133 22 27 33.57 -07 44 25.2 19.5   644 – Palomar Mountain/NEAT MPS 96365
2003 07 24.49248 22 27 33.04 -07 44 26.9 19.6   644 – Palomar Mountain/NEAT MPS 96365
2003 08 04.30107 22 21 56.27 -08 07 00.4 19.8   704 – Lincoln Laboratory ETS, New Mexico MPS 96365
2003 08 04.31143 22 21 55.75 -08 07 03.1 19.7   704 – Lincoln Laboratory ETS, New Mexico MPS 96365
2003 08 04.32190 22 21 55.42 -08 07 05.0 19.4   704 – Lincoln Laboratory ETS, New Mexico MPS 96365
2003 08 04.33230 22 21 55.08 -08 07 07.2 19.7   704 – Lincoln Laboratory ETS, New Mexico MPS 96365
2003 08 04.37775 22 21 53.18 -08 07 14.2 19.7 V 691 – Steward Observatory, Kitt Peak-Spacewatch MPS 96365
2003 08 04.40896 22 21 51.94 -08 07 19.6 19.9 V 691 – Steward Observatory, Kitt Peak-Spacewatch MPS 96365
2003 08 04.43467 22 21 50.92 -08 07 23.8 19.8 V 691 – Steward Observatory, Kitt Peak-Spacewatch MPS 96365
2003 08 25.27013 22 05 53.86 -09 23 59.8 18.5   704 – Lincoln Laboratory ETS, New Mexico MPS 96365
2003 08 25.28264 22 05 53.23 -09 24 02.7 18.8   704 – Lincoln Laboratory ETS, New Mexico MPS 96365
2003 08 25.29548 22 05 52.50 -09 24 06.2 18.9   704 – Lincoln Laboratory ETS, New Mexico MPS 96365
2003 08 25.30797 22 05 51.92 -09 24 08.9 19.3   704 – Lincoln Laboratory ETS, New Mexico MPS 96365
2003 08 25.32034 22 05 51.28 -09 24 12.4 19.1   704 – Lincoln Laboratory ETS, New Mexico MPS 96365
2003 09 01.24387 22 00 12.03 -09 53 06.3 19.2   704 – Lincoln Laboratory ETS, New Mexico MPS 96365
2003 09 01.25569 22 00 11.48 -09 53 10.7 19.6   704 – Lincoln Laboratory ETS, New Mexico MPS 96365
2003 09 01.27928 22 00 10.33 -09 53 17.4 19.5   704 – Lincoln Laboratory ETS, New Mexico MPS 96365
2003 09 19.12557 21 48 19.97 -10 56 48.4 19.8 V 291 – LPL/Spacewatch II MPS 85539
2003 09 19.14947 21 48 19.22 -10 56 52.2 19.6 V 291 – LPL/Spacewatch II MPS 85539
2003 09 19.17308 21 48 18.48 -10 56 56.3 19.6 V 291 – LPL/Spacewatch II MPS 85539
2003 09 22.16862 21 46 56.75 -11 04 48.2 19.4 R 699 – Lowell Observatory-LONEOS MPS 85539
2003 09 22.18361 21 46 56.48 -11 04 51.2   699 – Lowell Observatory-LONEOS MPS 85539
2003 09 22.19855 21 46 55.96 -11 04 53.2   699 – Lowell Observatory-LONEOS MPS 85539
2003 09 22.21348 21 46 55.59 -11 04 56.2   699 – Lowell Observatory-LONEOS MPS 85539
2004 12 14.27970 06 21 03.71 +23 31 40.5 20.0   704 – Lincoln Laboratory ETS, New Mexico MPS 165077
2004 12 14.29352 06 21 02.84 +23 31 40.3 20.3   704 – Lincoln Laboratory ETS, New Mexico MPS 165077
2004 12 14.30724 06 21 01.94 +23 31 40.3 20.3   704 – Lincoln Laboratory ETS, New Mexico MPS 165077
2004 12 14.32034 06 21 01.22 +23 31 38.8 19.9   704 – Lincoln Laboratory ETS, New Mexico MPS 165077
2006 02 25.33592 11 56 27.45 -01 58 52.2 20.5 V 691 – Steward Observatory, Kitt Peak-Spacewatch MPS 165077
2006 02 25.35322 11 56 26.75 -01 58 48.3 20.6 V 691 – Steward Observatory, Kitt Peak-Spacewatch MPS 165077
2006 02 25.37054 11 56 26.02 -01 58 44.3 20.9 V 691 – Steward Observatory, Kitt Peak-Spacewatch MPS 165077
2006 03 09.26573 11 47 38.68 -01 06 01.3   691 – Steward Observatory, Kitt Peak-Spacewatch MPS 166059
2006 03 09.28306 11 47 37.82 -01 05 55.9   691 – Steward Observatory, Kitt Peak-Spacewatch MPS 166059
2006 03 09.30044 11 47 36.99 -01 05 50.9   691 – Steward Observatory, Kitt Peak-Spacewatch MPS 166059
2006 04 02.26825 11 28 49.18 +00 56 04.2 20.7 V G96 – Mt. Lemmon Survey MPS 168241
2006 04 02.27419 11 28 48.93 +00 56 05.5 19.8 V G96 – Mt. Lemmon Survey MPS 168241
2006 04 02.28020 11 28 48.64 +00 56 07.5 20.1 V G96 – Mt. Lemmon Survey MPS 168241
2006 04 02.28625 11 28 48.43 +00 56 09.1 20.1 V G96 – Mt. Lemmon Survey MPS 168241
2006 04 24.19205 11 17 31.52 +02 17 57.3 20.7 V G96 – Mt. Lemmon Survey MPS 169893
2006 04 24.19841 11 17 31.41 +02 17 58.3 20.7 V G96 – Mt. Lemmon Survey MPS 169893
2006 04 24.20480 11 17 31.27 +02 17 59.2 20.5 V G96 – Mt. Lemmon Survey MPS 169893
2006 04 24.21133 11 17 31.16 +02 18 00.9 21.3 V G96 – Mt. Lemmon Survey MPS 169893
2008 09 09.41366 01 36 09.50 +12 32 07.0 19.6 V G96 – Mt. Lemmon Survey MPS 256408
2008 09 09.41915 01 36 09.39 +12 32 06.5 19.8 V G96 – Mt. Lemmon Survey MPS 256408
2008 09 09.42470 01 36 09.25 +12 32 06.0 19.3 V G96 – Mt. Lemmon Survey MPS 256408
2008 09 09.43016 01 36 09.14 +12 32 05.7 19.3 V G96 – Mt. Lemmon Survey MPS 256408
2008 09 21.24149 01 30 40.07 +12 06 44.3 19.5 V 691 – Steward Observatory, Kitt Peak-Spacewatch MPS 257572
2008 09 21.25911 01 30 39.41 +12 06 41.0 19.5 V 691 – Steward Observatory, Kitt Peak-Spacewatch MPS 257572
2008 09 21.27673 01 30 38.82 +12 06 37.7 19.3 V 691 – Steward Observatory, Kitt Peak-Spacewatch MPS 257572
2008 09 24.28909 01 28 44.77 +11 56 43.4 19.7   704 – Lincoln Laboratory ETS, New Mexico MPS 257572
2008 09 24.30104 01 28 44.29 +11 56 41.5 19.8   704 – Lincoln Laboratory ETS, New Mexico MPS 257572
2008 09 24.31301 01 28 43.79 +11 56 39.1 19.9   704 – Lincoln Laboratory ETS, New Mexico MPS 257572
2008 09 24.32499 01 28 43.33 +11 56 35.8 20.0   704 – Lincoln Laboratory ETS, New Mexico MPS 257572
2008 09 24.33695 01 28 42.83 +11 56 33.2 19.9   704 – Lincoln Laboratory ETS, New Mexico MPS 257572
2008 09 25.23422 01 28 06.98 +11 53 20.4 19.4 V 691 – Steward Observatory, Kitt Peak-Spacewatch MPS 258944
2008 09 25.25185 01 28 06.24 +11 53 16.4 19.3 V 691 – Steward Observatory, Kitt Peak-Spacewatch MPS 258944
2008 09 25.26947 01 28 05.49 +11 53 12.7 19.3 V 691 – Steward Observatory, Kitt Peak-Spacewatch MPS 258944
2008 10 01.28506 01 23 43.56 +11 28 59.5 19.5   704 – Lincoln Laboratory ETS, New Mexico MPS 258944
2008 10 01.29729 01 23 42.90 +11 28 55.6 19.8   704 – Lincoln Laboratory ETS, New Mexico MPS 258944
2008 10 01.30951 01 23 42.31 +11 28 53.2 19.4   704 – Lincoln Laboratory ETS, New Mexico MPS 258944
2008 10 01.32171 01 23 41.74 +11 28 49.1 19.8   704 – Lincoln Laboratory ETS, New Mexico MPS 258944
2008 10 01.33406 01 23 41.14 +11 28 46.8 19.8   704 – Lincoln Laboratory ETS, New Mexico MPS 258944
2008 10 04.93740 01 20 50.90 +11 12 14.6 18.3 R 106 – Crni Vrh MPS 260131
2008 10 04.94703 01 20 50.42 +11 12 13.1 18.8 R 106 – Crni Vrh MPS 260131
2008 10 04.95664 01 20 49.93 +11 12 10.9 18.5 R 106 – Crni Vrh MPS 260131
2008 10 04.96627 01 20 49.40 +11 12 08.3 18.7 R 106 – Crni Vrh MPS 260131
2008 10 07.21808 01 18 59.71 +11 01 15.2 19.2 V 691 – Steward Observatory, Kitt Peak-Spacewatch MPS 260131
2008 10 07.23576 01 18 58.79 +11 01 09.8 19.1 V 691 – Steward Observatory, Kitt Peak-Spacewatch MPS 260131
2008 10 07.25339 01 18 57.91 +11 01 04.8 19.2 V 691 – Steward Observatory, Kitt Peak-Spacewatch MPS 260131
2008 10 25.24847 01 04 22.86 +09 27 01.3 19.2   704 – Lincoln Laboratory ETS, New Mexico MPS 262853
2008 10 25.25997 01 04 22.26 +09 26 57.8 19.6   704 – Lincoln Laboratory ETS, New Mexico MPS 262853
2008 10 25.27154 01 04 21.73 +09 26 54.0 19.3   704 – Lincoln Laboratory ETS, New Mexico MPS 262853
2008 10 25.28307 01 04 21.25 +09 26 51.4 19.8   704 – Lincoln Laboratory ETS, New Mexico MPS 262853
2008 10 25.29459 01 04 20.70 +09 26 48.1 19.5   704 – Lincoln Laboratory ETS, New Mexico MPS 262853
2008 11 01.19803 00 59 36.76 +08 52 54.8 19.3   704 – Lincoln Laboratory ETS, New Mexico MPS 264419
2008 11 01.20970 00 59 36.30 +08 52 52.1 19.8   704 – Lincoln Laboratory ETS, New Mexico MPS 264419
2008 11 01.22139 00 59 35.80 +08 52 47.6 20.0   704 – Lincoln Laboratory ETS, New Mexico MPS 264419
2008 11 01.23311 00 59 35.36 +08 52 44.8 19.9   704 – Lincoln Laboratory ETS, New Mexico MPS 264419
2008 11 01.24480 00 59 34.86 +08 52 41.7 19.5   704 – Lincoln Laboratory ETS, New Mexico MPS 264419
